Time,TemperatureF,DewpointF,PressureIn,WindDirection,WindDirectionDegrees,WindSpeedMPH,WindSpeedGustMPH,Humidity,HourlyPrecipIn,Conditions,Clouds,dailyrainin,SoftwareType,DateUTC
2013-06-30 00:12:00,77.0,43.0,-100.00,NNW,346,7.0,7.0,30,-99.99,,,-99.99,,2013-06-30 05:12:00,
2013-06-30 00:22:00,77.0,42.0,-100.00,NNW,340,6.0,7.0,29,-99.99,,,-99.99,,2013-06-30 05:22:00,
2013-06-30 00:33:00,77.0,43.0,-100.00,NNW,338,5.0,6.0,30,-99.99,,,-99.99,,2013-06-30 05:33:00,
2013-06-30 00:43:00,75.0,42.0,-100.00,NNW,332,5.0,6.0,31,-99.99,,,-99.99,,2013-06-30 05:43:00,
2013-06-30 01:23:00,77.0,42.0,-100.00,NNW,342,3.0,4.0,29,-99.99,,,-99.99,,2013-06-30 06:23:00,
2013-06-30 01:53:00,79.0,40.0,-100.00,NNW,330,2.0,2.0,25,-99.99,,,-99.99,,2013-06-30 06:53:00,
2013-06-30 02:12:00,77.0,41.0,-100.00,NNW,329,1.0,2.0,28,-99.99,,,-99.99,,2013-06-30 07:12:00,
2013-06-30 02:22:00,77.0,39.0,-100.00,NNW,329,1.0,1.0,26,-99.99,,,-99.99,,2013-06-30 07:22:00,
2013-06-30 03:22:00,72.0,43.0,-100.00,ENE,61,13.0,22.0,36,-99.99,,,-99.99,,2013-06-30 08:22:00,
2013-06-30 03:42:00,70.0,43.0,-100.00,ENE,65,10.0,20.0,38,-99.99,,,-99.99,,2013-06-30 08:42:00,
2013-06-30 04:12:00,72.0,42.0,-100.00,ENE,58,15.0,21.0,35,-99.99,,,-99.99,,2013-06-30 09:12:00,
2013-06-30 04:23:00,72.0,43.0,-100.00,ENE,70,13.0,20.0,36,-99.99,,,-99.99,,2013-06-30 09:23:00,
2013-06-30 05:22:00,68.0,46.0,-100.00,East,80,5.0,9.0,45,-99.99,,,-99.99,,2013-06-30 10:22:00,
2013-06-30 05:33:00,66.0,45.0,-100.00,East,80,11.0,18.0,47,-99.99,,,-99.99,,2013-06-30 10:33:00,
2013-06-30 05:42:00,66.0,46.0,-100.00,ENE,71,12.0,18.0,48,-99.99,,,-99.99,,2013-06-30 10:42:00,
2013-06-30 06:11:00,64.0,46.0,-100.00,ENE,63,15.0,26.0,51,-99.99,,,-99.99,,2013-06-30 11:11:00,
2013-06-30 06:22:00,64.0,46.0,-100.00,ENE,69,19.0,31.0,51,-99.99,,,-99.99,,2013-06-30 11:22:00,
2013-06-30 06:43:00,64.0,47.0,-100.00,ENE,73,19.0,29.0,53,-99.99,,,-99.99,,2013-06-30 11:43:00,
2013-06-30 07:11:00,64.0,49.0,-100.00,ENE,74,6.0,11.0,58,-99.99,,,-99.99,,2013-06-30 12:11:00,
2013-06-30 07:24:00,64.0,48.0,-100.00,ENE,78,10.0,15.0,56,-99.99,,,-99.99,,2013-06-30 12:24:00,
2013-06-30 07:43:00,64.0,47.0,-100.00,NE,38,6.0,8.0,54,-99.99,,,-99.99,,2013-06-30 12:43:00,
2013-06-30 08:22:00,66.0,46.0,-100.00,ENE,74,3.0,5.0,48,-99.99,,,-99.99,,2013-06-30 13:22:00,
2013-06-30 08:43:00,66.0,48.0,-100.00,East,92,9.0,11.0,52,-99.99,,,-99.99,,2013-06-30 13:43:00,
2013-06-30 09:22:00,70.0,45.0,-100.00,East,90,12.0,17.0,41,-99.99,,,-99.99,,2013-06-30 14:22:00,
2013-06-30 09:44:00,70.0,46.0,-100.00,ESE,117,10.0,15.0,43,-99.99,,,-99.99,,2013-06-30 14:44:00,
2013-06-30 09:52:00,70.0,47.0,-100.00,SE,133,8.0,13.0,44,-99.99,,,-99.99,,2013-06-30 14:52:00,
2013-06-30 10:23:00,70.0,50.0,-100.00,SSE,158,5.0,8.0,49,-99.99,,,-99.99,,2013-06-30 15:23:00,
2013-06-30 10:44:00,70.0,49.0,-100.00,SSE,158,5.0,7.0,48,-99.99,,,-99.99,,2013-06-30 15:44:00,
2013-06-30 10:53:00,72.0,50.0,-100.00,SSE,158,5.0,9.0,47,-99.99,,,-99.99,,2013-06-30 15:53:00,
2013-06-30 11:01:00,70.0,50.0,-100.00,South,170,8.0,10.0,49,-99.99,,,-99.99,,2013-06-30 16:01:00,
2013-06-30 11:11:00,70.0,50.0,-100.00,SSE,160,5.0,8.0,50,-99.99,,,-99.99,,2013-06-30 16:11:00,
2013-06-30 11:44:00,72.0,50.0,-100.00,ESE,114,6.0,9.0,46,-99.99,,,-99.99,,2013-06-30 16:44:00,
2013-06-30 12:23:00,72.0,50.0,-100.00,East,92,8.0,12.0,46,-99.99,,,-99.99,,2013-06-30 17:23:00,
2013-06-30 12:43:00,70.0,50.0,-100.00,ENE,67,5.0,8.0,50,-99.99,,,-99.99,,2013-06-30 17:43:00,
2013-06-30 13:12:00,70.0,50.0,-100.00,SSE,165,8.0,11.0,50,-99.99,,,-99.99,,2013-06-30 18:12:00,
2013-06-30 13:22:00,68.0,51.0,-100.00,SSE,164,7.0,10.0,54,-99.99,,,-99.99,,2013-06-30 18:22:00,
2013-06-30 13:43:00,70.0,53.0,-100.00,SE,135,6.0,9.0,56,-99.99,,,-99.99,,2013-06-30 18:43:00,
2013-06-30 14:11:00,70.0,53.0,-100.00,East,88,7.0,11.0,55,-99.99,,,-99.99,,2013-06-30 19:11:00,
2013-06-30 14:22:00,72.0,54.0,-100.00,ENE,74,7.0,11.0,53,-99.99,,,-99.99,,2013-06-30 19:22:00,
2013-06-30 15:11:00,73.0,49.0,-100.00,East,79,4.0,9.0,42,-99.99,,,-99.99,,2013-06-30 20:11:00,
2013-06-30 15:22:00,75.0,47.0,-100.00,East,96,6.0,12.0,37,-99.99,,,-99.99,,2013-06-30 20:22:00,
2013-06-30 15:42:00,79.0,48.0,-100.00,South,173,5.0,11.0,34,-99.99,,,-99.99,,2013-06-30 20:42:00,
2013-06-30 16:11:00,79.0,45.0,-100.00,SE,129,6.0,15.0,30,-99.99,,,-99.99,,2013-06-30 21:11:00,
2013-06-30 16:22:00,79.0,46.0,-100.00,SSE,153,5.0,12.0,31,-99.99,,,-99.99,,2013-06-30 21:22:00,
2013-06-30 16:53:00,79.0,46.0,-100.00,South,177,6.0,15.0,32,-99.99,,,-99.99,,2013-06-30 21:53:00,
2013-06-30 17:22:00,77.0,46.0,-100.00,SE,126,6.0,15.0,33,-99.99,,,-99.99,,2013-06-30 22:22:00,
2013-06-30 17:43:00,75.0,46.0,-100.00,East,93,9.0,16.0,35,-99.99,,,-99.99,,2013-06-30 22:43:00,
2013-06-30 17:52:00,75.0,46.0,-100.00,East,89,9.0,17.0,35,-99.99,,,-99.99,,2013-06-30 22:52:00,
2013-06-30 18:11:00,77.0,46.0,-100.00,East,84,9.0,16.0,34,-99.99,,,-99.99,,2013-06-30 23:11:00,
2013-06-30 18:22:00,77.0,46.0,-100.00,East,79,8.0,17.0,33,-99.99,,,-99.99,,2013-06-30 23:22:00,
2013-06-30 18:43:00,75.0,45.0,-100.00,ENE,67,8.0,15.0,34,-99.99,,,-99.99,,2013-06-30 23:43:00,
2013-06-30 19:11:00,77.0,46.0,-100.00,East,79,11.0,17.0,34,-99.99,,,-99.99,,2013-07-01 00:11:00,
2013-06-30 19:22:00,75.0,46.0,-100.00,ENE,78,11.0,18.0,35,-99.99,,,-99.99,,2013-07-01 00:22:00,
2013-06-30 19:33:00,75.0,46.0,-100.00,East,81,10.0,17.0,36,-99.99,,,-99.99,,2013-07-01 00:33:00,
2013-06-30 19:42:00,75.0,48.0,-100.00,East,86,9.0,17.0,38,-99.99,,,-99.99,,2013-07-01 00:42:00,
2013-06-30 19:52:00,75.0,46.0,-100.00,ENE,75,11.0,16.0,36,-99.99,,,-99.99,,2013-07-01 00:52:00,
2013-06-30 20:01:00,75.0,48.0,-100.00,East,81,10.0,15.0,38,-99.99,,,-99.99,,2013-07-01 01:01:00,
2013-06-30 20:11:00,75.0,49.0,-100.00,East,96,12.0,20.0,39,-99.99,,,-99.99,,2013-07-01 01:11:00,
2013-06-30 20:22:00,73.0,47.0,-100.00,ESE,104,9.0,14.0,39,-99.99,,,-99.99,,2013-07-01 01:22:00,
2013-06-30 20:42:00,73.0,47.0,-100.00,ESE,114,10.0,15.0,39,-99.99,,,-99.99,,2013-07-01 01:42:00,
2013-06-30 20:52:00,73.0,48.0,-100.00,ESE,113,8.0,16.0,40,-99.99,,,-99.99,,2013-07-01 01:52:00,
2013-06-30 21:11:00,73.0,49.0,-100.00,ESE,105,11.0,14.0,42,-99.99,,,-99.99,,2013-07-01 02:11:00,
2013-06-30 21:22:00,73.0,50.0,-100.00,ESE,110,12.0,16.0,44,-99.99,,,-99.99,,2013-07-01 02:22:00,
2013-06-30 21:43:00,72.0,49.0,-100.00,ESE,106,12.0,15.0,45,-99.99,,,-99.99,,2013-07-01 02:43:00,
2013-06-30 21:53:00,72.0,50.0,-100.00,ESE,105,13.0,16.0,46,-99.99,,,-99.99,,2013-07-01 02:53:00,
2013-06-30 22:11:00,72.0,50.0,-100.00,ESE,102,12.0,16.0,47,-99.99,,,-99.99,,2013-07-01 03:11:00,
2013-06-30 22:23:00,72.0,51.0,-100.00,ESE,103,12.0,16.0,48,-99.99,,,-99.99,,2013-07-01 03:23:00,
2013-06-30 22:43:00,70.0,49.0,-100.00,ESE,108,15.0,19.0,48,-99.99,,,-99.99,,2013-07-01 03:43:00,
2013-06-30 23:11:00,70.0,50.0,-100.00,ESE,117,12.0,17.0,49,-99.99,,,-99.99,,2013-07-01 04:11:00,
2013-06-30 23:22:00,68.0,51.0,-100.00,SE,135,11.0,15.0,54,-99.99,,,-99.99,,2013-07-01 04:22:00,
2013-06-30 23:32:00,68.0,52.0,-100.00,SE,132,11.0,14.0,56,-99.99,,,-99.99,,2013-07-01 04:32:00,
2013-06-30 23:43:00,68.0,52.0,-100.00,SE,135,10.0,15.0,57,-99.99,,,-99.99,,2013-07-01 04:43:00,
2013-06-30 23:53:00,68.0,52.0,-100.00,SE,139,11.0,15.0,57,-99.99,,,-99.99,,2013-07-01 04:53:00,